Meteo pe oră la Almenar

Astăzi, 23 Ianuarie, Sâmbătă

Timp Temperatura Precipitaţii Vânt Presiune Umiditate
00:00 +2°C° 0 mm 5 m/s 728 mmHg 77%
01:00 +3°C° 0 mm 4 m/s 728 mmHg 79%
02:00 +3°C° 0 mm 4 m/s 728 mmHg 80%
03:00 +3°C° 0 mm 3 m/s 728 mmHg 81%
04:00 +3°C° 0 mm 3 m/s 727 mmHg 81%
05:00 +3°C° 0 mm 4 m/s 727 mmHg 81%
06:00 +3°C° 0 mm 4 m/s 727 mmHg 81%
07:00 +3°C° 0 mm 4 m/s 727 mmHg 80%
08:00 +4°C° 0 mm 4 m/s 727 mmHg 78%
09:00 +5°C° 0 mm 5 m/s 727 mmHg 77%
10:00 +5°C° 0.1 mm 6 m/s 727 mmHg 70%
11:00 +6°C° 0.1 mm 8 m/s 727 mmHg 64%
12:00 +7°C° 0.1 mm 10 m/s 727 mmHg 58%
13:00 +7°C° 0 mm 10 m/s 727 mmHg 56%
14:00 +8°C° 0 mm 10 m/s 727 mmHg 55%
15:00 +8°C° 0 mm 9 m/s 726 mmHg 53%
16:00 +8°C° 0 mm 7 m/s 726 mmHg 63%
17:00 +6°C° 0 mm 5 m/s 726 mmHg 73%
18:00 +5°C° 0 mm 3 m/s 726 mmHg 82%
19:00 +5°C° 0.7 mm 3 m/s 725 mmHg 85%
20:00 +6°C° 0.7 mm 2 m/s 724 mmHg 89%
21:00 +6°C° 0.7 mm 1 m/s 724 mmHg 92%
22:00 +6°C° 0.8 mm 1 m/s 723 mmHg 92%
23:00 +6°C° 0.8 mm 1 m/s 723 mmHg 93%

Mâine, 24 Ianuarie, Duminică

Timp Temperatura Precipitaţii Vânt Presiune Umiditate
00:00 +7°C° 0.8 mm 1 m/s 722 mmHg 94%
01:00 +6°C° 0.1 mm 1 m/s 722 mmHg 94%
02:00 +5°C° 0.1 mm 2 m/s 722 mmHg 95%
03:00 +5°C° 0.1 mm 2 m/s 722 mmHg 95%
04:00 +4°C° 0 mm 3 m/s 722 mmHg 92%
05:00 +4°C° 0 mm 4 m/s 723 mmHg 89%
06:00 +3°C° 0 mm 5 m/s 724 mmHg 86%
07:00 +4°C° 0 mm 6 m/s 725 mmHg 81%
08:00 +4°C° 0 mm 6 m/s 726 mmHg 76%
09:00 +4°C° 0 mm 6 m/s 727 mmHg 72%
10:00 +6°C° 0 mm 7 m/s 728 mmHg 66%
11:00 +7°C° 0 mm 8 m/s 728 mmHg 61%
12:00 +8°C° 0 mm 9 m/s 728 mmHg 55%
13:00 +8°C° 0 mm 9 m/s 728 mmHg 56%
14:00 +8°C° 0 mm 9 m/s 728 mmHg 56%
15:00 +8°C° 0 mm 9 m/s 728 mmHg 57%
16:00 +7°C° 0 mm 8 m/s 729 mmHg 61%
17:00 +6°C° 0 mm 7 m/s 729 mmHg 65%
18:00 +6°C° 0 mm 5 m/s 730 mmHg 70%
19:00 +4°C° 0 mm 6 m/s 730 mmHg 71%
20:00 +4°C° 0 mm 6 m/s 730 mmHg 73%
21:00 +3°C° 0 mm 7 m/s 731 mmHg 74%
22:00 +3°C° 0 mm 6 m/s 731 mmHg 75%
23:00 +3°C° 0 mm 5 m/s 731 mmHg 75%

Poimâine, 25 Ianuarie, Luni

Timp Temperatura Precipitaţii Vânt Presiune Umiditate
00:00 +3°C° 0 mm 4 m/s 731 mmHg 76%
01:00 +3°C° 0 mm 4 m/s 732 mmHg 76%
02:00 +3°C° 0 mm 4 m/s 732 mmHg 77%
03:00 +3°C° 0 mm 3 m/s 732 mmHg 77%
04:00 +2°C° 0 mm 3 m/s 732 mmHg 77%
05:00 +2°C° 0 mm 3 m/s 733 mmHg 78%
06:00 +2°C° 0 mm 2 m/s 733 mmHg 78%
07:00 +3°C° 0 mm 2 m/s 733 mmHg 75%
08:00 +4°C° 0 mm 2 m/s 734 mmHg 72%
09:00 +5°C° 0 mm 1 m/s 735 mmHg 68%
10:00 +7°C° 0 mm 1 m/s 735 mmHg 64%
11:00 +8°C° 0 mm 1 m/s 735 mmHg 59%
12:00 +9°C° 0 mm 1 m/s 735 mmHg 55%
13:00 +8°C° 0 mm 2 m/s 735 mmHg 54%
14:00 +9°C° 0 mm 2 m/s 735 mmHg 54%
15:00 +9°C° 0 mm 2 m/s 735 mmHg 53%
16:00 +8°C° 0 mm 2 m/s 735 mmHg 57%
17:00 +7°C° 0 mm 2 m/s 736 mmHg 61%
18:00 +7°C° 0 mm 1 m/s 736 mmHg 65%
19:00 +6°C° 0 mm 1 m/s 736 mmHg 68%
20:00 +6°C° 0 mm 1 m/s 737 mmHg 70%
21:00 +5°C° 0 mm 1 m/s 737 mmHg 73%
22:00 +5°C° 0 mm 1 m/s 737 mmHg 75%
23:00 +4°C° 0 mm 1 m/s 737 mmHg 77%

26 Ianuarie, Marţi

Timp Temperatura Precipitaţii Vânt Presiune Umiditate
00:00 +4°C° 0 mm 1 m/s 737 mmHg 79%
01:00 +4°C° 0 mm 1 m/s 737 mmHg 79%
02:00 +3°C° 0 mm 1 m/s 737 mmHg 79%
03:00 +3°C° 0 mm 1 m/s 737 mmHg 80%
04:00 +3°C° 0 mm 1 m/s 737 mmHg 79%
05:00 +3°C° 0 mm 1 m/s 737 mmHg 79%
06:00 +3°C° 0 mm 1 m/s 737 mmHg 78%
07:00 +4°C° 0 mm 1 m/s 737 mmHg 75%
08:00 +4°C° 0 mm 1 m/s 737 mmHg 71%
09:00 +5°C° 0 mm 1 m/s 738 mmHg 68%
10:00 +5°C° 0 mm 0 m/s 737 mmHg 64%
11:00 +7°C° 0 mm 0 m/s 737 mmHg 61%
12:00 +8°C° 0 mm 0 m/s 737 mmHg 58%
13:00 +9°C° 0 mm 1 m/s 737 mmHg 60%
14:00 +9°C° 0 mm 1 m/s 737 mmHg 62%
15:00 +8°C° 0 mm 2 m/s 736 mmHg 64%
16:00 +8°C° 0 mm 2 m/s 737 mmHg 67%
17:00 +8°C° 0 mm 1 m/s 737 mmHg 71%
18:00 +7°C° 0 mm 1 m/s 737 mmHg 74%
19:00 +7°C° 0 mm 1 m/s 737 mmHg 77%
20:00 +6°C° 0 mm 1 m/s 737 mmHg 80%
21:00 +6°C° 0 mm 1 m/s 738 mmHg 82%
22:00 +6°C° 0 mm 1 m/s 738 mmHg 84%
23:00 +6°C° 0 mm 1 m/s 738 mmHg 86%

27 Ianuarie, Miercuri

Timp Temperatura Precipitaţii Vânt Presiune Umiditate
00:00 +4°C° 0 mm 0 m/s 738 mmHg 87%
01:00 +5°C° 0 mm 1 m/s 738 mmHg 88%
02:00 +5°C° 0 mm 1 m/s 738 mmHg 88%
03:00 +5°C° 0 mm 1 m/s 738 mmHg 89%
04:00 +5°C° 0 mm 1 m/s 738 mmHg 89%
05:00 +4°C° 0 mm 0 m/s 738 mmHg 89%
06:00 +4°C° 0 mm 0 m/s 738 mmHg 90%
07:00 +5°C° 0 mm 0 m/s 738 mmHg 87%
08:00 +6°C° 0 mm 0 m/s 739 mmHg 85%
09:00 +7°C° 0 mm 0 m/s 739 mmHg 82%
10:00 +8°C° 0 mm 0 m/s 739 mmHg 78%
11:00 +10°C° 0 mm 1 m/s 739 mmHg 74%
12:00 +11°C° 0 mm 1 m/s 739 mmHg 70%
13:00 +12°C° 0 mm 1 m/s 739 mmHg 69%
14:00 +12°C° 0 mm 1 m/s 739 mmHg 69%
15:00 +13°C° 0 mm 1 m/s 738 mmHg 68%
16:00 +11°C° 0 mm 1 m/s 738 mmHg 73%
17:00 +10°C° 0 mm 1 m/s 738 mmHg 79%
18:00 +9°C° 0 mm 1 m/s 738 mmHg 84%
19:00 +9°C° 0 mm 1 m/s 739 mmHg 84%
20:00 +8°C° 0 mm 1 m/s 739 mmHg 84%
21:00 +8°C° 0 mm 1 m/s 739 mmHg 84%
22:00 +8°C° 0 mm 1 m/s 739 mmHg 83%
23:00 +7°C° 0 mm 0 m/s 739 mmHg 82%

28 Ianuarie, Joi

Timp Temperatura Precipitaţii Vânt Presiune Umiditate
00:00 +6°C° 0 mm 0 m/s 739 mmHg 81%
01:00 +6°C° 0 mm 0 m/s 738 mmHg 81%
02:00 +6°C° 0 mm 0 m/s 738 mmHg 80%
03:00 +6°C° 0 mm 0 m/s 738 mmHg 79%
04:00 +6°C° 0 mm 0 m/s 738 mmHg 79%
05:00 +6°C° 0 mm 0 m/s 738 mmHg 79%
06:00 +5°C° 0 mm 0 m/s 738 mmHg 79%
07:00 +6°C° 0 mm 0 m/s 739 mmHg 77%
08:00 +7°C° 0 mm 0 m/s 739 mmHg 74%
09:00 +8°C° 0 mm 0 m/s 739 mmHg 72%
10:00 +11°C° 0 mm 1 m/s 739 mmHg 68%
11:00 +13°C° 0 mm 2 m/s 739 mmHg 64%
12:00 +14°C° 0 mm 2 m/s 740 mmHg 60%
13:00 +15°C° 0 mm 2 m/s 739 mmHg 61%
14:00 +16°C° 0 mm 2 m/s 739 mmHg 62%
15:00 +17°C° 0 mm 2 m/s 739 mmHg 62%
16:00 +15°C° 0 mm 2 m/s 739 mmHg 69%
17:00 +14°C° 0 mm 2 m/s 739 mmHg 75%
18:00 +12°C° 0 mm 2 m/s 739 mmHg 82%
Arată mai mult

Formular de consimțământ

Meteoprog și furnizorii noștri de servicii pot stoca și accesa date personale, precum cookies, identificatori de dispozitiv sau alte tehnologii similare pe dispozitivul dumneavoastră și procesa astfel de date pentru a personaliza conținutul și reclamele, dar și pentru a oferi caracteristici de social media și pentru a analiza traficul.

  • Stocarea și/sau accesarea informațiilor pe dispozitivul dumneavoastră

    Cookies, identificatori de dispozitiv sau alte informații pot fi stocate sau accesate pe dispozitiv în scopurile indicate mai sus.

  • Reclame și conținut personalizat, evaluarea reclamelor și a conținutului, informații despre audiențe și dezvoltarea produselor

    Reclamele și conținutul pot fi personalizate pe baza unui profil. Pot fi adăugate date suplimentare pentru a personaliza mai bine reclamele și conținutul. Performanța reclamelor și conținutului poate fi măsurată. Pot fi obținute informații despre utilizatorii care au văzut reclamele și conținutul. Aceste date pot fi utilizate pentru a dezvolta sau îmbunătăți experiența utilizatorilor, sistemele și software-ul.

Dând clic pe ‘Sunt de acord’, permiteți utilizarea cookie-urilor menționate, a identificatorilor de dispozitiv, balizelor web sau altor tehnologii similare. Setările pot fi modificate din browser-ul dispozitivului dumneavoastră.

În anumite scopuri, interesele legitime pot prima asupra consimțământului. Puteți citi mai multe informații în acest sens în Politica privind Confidențialitatea Datelor și Cookie.